�������l�o���
Date,Time,MP-1(��Sv/h),MP-2(��Sv/h),MP-3(��Sv/h),MP-4(��Sv/h),MP-5(��Sv/h),MP-6(��Sv/h),MP-7(��Sv/h),MP-8(��Sv/h),����,����(m/s),���J
2016/09/21,00:00,1.105,1.785,1.283,1.932,1.282,0.580,1.022,0.944,�k�k��,10.5,��
2016/09/21,00:10,1.104,1.789,1.286,1.934,1.288,0.579,1.024,0.943,�k�k��,12.3,��
2016/09/21,00:20,1.110,1.792,1.289,1.938,1.291,0.581,1.023,0.946,�k�k��,10.8,��
2016/09/21,00:30,1.109,1.795,1.290,1.938,1.294,0.579,1.025,0.947,�k�k��,9.9,��
2016/09/21,00:40,1.112,1.798,1.292,1.944,1.294,0.581,1.026,0.947,�k�k��,11.1,��
2016/09/21,00:50,1.115,1.799,1.292,1.946,1.298,0.581,1.027,0.949,�k,9.9,��
2016/09/21,01:00,1.116,1.800,1.295,1.948,1.299,0.584,1.027,0.949,�k,10.2,��
2016/09/21,01:10,1.113,1.802,1.296,1.951,1.300,0.581,1.026,0.949,�k,12.6,��
2016/09/21,01:20,1.118,1.802,1.297,1.953,1.301,0.585,1.028,0.949,�k,11.1,��
2016/09/21,01:30,1.118,1.804,1.297,1.955,1.305,0.581,1.027,0.951,�k,9.7,��
2016/09/21,01:40,1.117,1.806,1.298,1.962,1.308,0.584,1.028,0.952,�k,9.7,��
2016/09/21,01:50,1.120,1.804,1.299,1.961,1.307,0.583,1.030,0.951,�k,11.6,��
2016/09/21,02:00,1.118,1.808,1.300,1.962,1.310,0.584,1.029,0.954,�k,11.4,�L
2016/09/21,02:10,1.119,1.807,1.300,1.963,1.307,0.582,1.029,0.953,�k,11.1,�L
2016/09/21,02:20,1.116,1.804,1.298,1.957,1.304,0.583,1.029,0.950,�k,10.8,�L
2016/09/21,02:30,1.117,1.804,1.298,1.958,1.309,0.582,1.027,0.948,�k�k��,9.7,�L
2016/09/21,02:40,1.114,1.804,1.297,1.958,1.307,0.580,1.028,0.950,�k�k��,10.1,�L
2016/09/21,02:50,1.114,1.802,1.300,1.958,1.306,0.581,1.030,0.950,�k�k��,9.6,�L
2016/09/21,03:00,1.112,1.802,1.297,1.960,1.305,0.580,1.028,0.949,�k�k��,10.2,��
2016/09/21,03:10,1.114,1.802,1.299,1.958,1.307,0.580,1.032,0.949,�k�k��,10.2,��
2016/09/21,03:20,1.112,1.804,1.298,1.963,1.311,0.582,1.030,0.950,�k�k��,10.2,��
2016/09/21,03:30,1.113,1.803,1.299,1.960,1.311,0.581,1.030,0.948,�k�k��,10.4,��
2016/09/21,03:40,1.115,1.804,1.301,1.962,1.313,0.581,1.031,0.949,�k�k��,8.9,��
2016/09/21,03:50,1.116,1.810,1.303,1.964,1.311,0.584,1.032,0.951,�k�k��,10.5,��
2016/09/21,04:00,1.115,1.811,1.304,1.965,1.316,0.582,1.031,0.951,�k�k��,9.7,��
2016/09/21,04:10,1.118,1.812,1.302,1.965,1.318,0.581,1.032,0.954,�k�k��,9.1,��
2016/09/21,04:20,1.119,1.812,1.305,1.967,1.319,0.582,1.032,0.953,�k�k��,8.3,��
2016/09/21,04:30,1.120,1.813,1.304,1.971,1.319,0.580,1.031,0.954,�k�k��,8.8,��
2016/09/21,04:40,1.119,1.813,1.304,1.969,1.321,0.584,1.033,0.954,�k�k��,7.5,��
2016/09/21,04:50,1.122,1.818,1.305,1.974,1.324,0.584,1.034,0.955,�k�k��,7.4,��
2016/09/21,05:00,1.120,1.814,1.306,1.976,1.323,0.583,1.035,0.954,�k�k��,8.6,��
2016/09/21,05:10,1.118,1.815,1.305,1.978,1.326,0.583,1.035,0.955,�k�k��,7.8,��
2016/09/21,05:20,1.120,1.818,1.311,1.977,1.325,0.584,1.034,0.956,�k�k��,7.7,��
2016/09/21,05:30,1.122,1.814,1.310,1.980,1.328,0.584,1.036,0.956,�k��,8.0,��
2016/09/21,05:40,1.120,1.819,1.310,1.978,1.329,0.582,1.034,0.955,�k�k��,6.9,��
2016/09/21,05:50,1.124,1.820,1.311,1.976,1.328,0.583,1.036,0.957,�k�k��,6.9,��
2016/09/21,06:00,1.123,1.820,1.312,1.982,1.332,0.584,1.036,0.956,�k��,6.6,��
2016/09/21,06:10,1.122,1.818,1.310,1.981,1.330,0.585,1.038,0.957,�k��,7.1,��
2016/09/21,06:20,1.123,1.820,1.311,1.985,1.332,0.581,1.037,0.956,�k��,6.9,��
2016/09/21,06:30,1.126,1.821,1.312,1.983,1.334,0.586,1.036,0.955,�k��,7.5,��
2016/09/21,06:40,1.124,1.821,1.315,1.983,1.332,0.583,1.039,0.955,�k�k��,7.7,��
2016/09/21,06:50,1.124,1.824,1.315,1.985,1.335,0.583,1.037,0.956,�k�k��,6.9,��
2016/09/21,07:00,1.126,1.823,1.314,1.985,1.333,0.584,1.038,0.957,�k��,7.4,��
2016/09/21,07:10,1.125,1.822,1.314,1.985,1.336,0.584,1.038,0.957,�k��,7.2,��
2016/09/21,07:20,1.126,1.824,1.316,1.986,1.337,0.586,1.039,0.958,�k�k��,6.9,��
2016/09/21,07:30,1.126,1.829,1.317,1.990,1.338,0.585,1.036,0.957,�k�k��,6.6,��
2016/09/21,07:40,1.126,1.827,1.317,1.991,1.337,0.584,1.036,0.957,�k�k��,7.2,��
2016/09/21,07:50,1.129,1.829,1.319,1.992,1.341,0.584,1.039,0.957,�k�k��,7.1,��
2016/09/21,08:00,1.129,1.831,1.317,1.995,1.339,0.584,1.041,0.955,�k�k��,7.1,��
2016/09/21,08:10,1.128,1.830,1.320,1.993,1.342,0.585,1.040,0.957,�k�k��,6.6,��
2016/09/21,08:20,1.115,1.830,1.321,1.995,1.341,0.583,1.041,0.957,�k�k��,6.3,��
2016/09/21,08:30,1.113,1.828,1.321,1.995,1.341,0.586,1.042,0.956,�k�k��,7.2,��
2016/09/21,08:40,1.094,1.831,1.320,1.999,1.343,0.585,1.043,0.959,�k�k��,7.7,��
2016/09/21,08:50,1.083,1.830,1.321,1.999,1.345,0.583,1.044,0.958,�k�k��,7.2,��
2016/09/21,09:00,1.093,1.832,1.323,1.998,1.348,0.585,1.047,0.958,�k,5.3,��
2016/09/21,09:10,1.096,1.830,1.321,2.002,1.349,0.585,1.044,0.957,�k,6.3,��
2016/09/21,09:20,1.100,1.833,1.323,2.003,1.350,0.584,1.046,0.957,�k,6.1,��
2016/09/21,09:30,1.098,1.836,1.321,2.004,1.351,0.583,1.045,0.957,�k,6.0,��
2016/09/21,09:40,1.101,1.838,1.325,2.004,1.353,0.586,1.047,0.960,�k,6.6,��
2016/09/21,09:50,1.100,1.837,1.326,2.005,1.354,0.584,1.046,0.958,�k,5.5,��
2016/09/21,10:00,1.097,1.841,1.327,2.006,1.358,0.585,1.046,0.959,�k,5.2,��
2016/09/21,10:10,1.099,1.842,1.326,2.008,1.355,0.585,1.049,0.957,�k�k��,6.4,��
2016/09/21,10:20,1.100,1.842,1.327,2.005,1.358,0.585,1.046,0.959,�k,5.8,��
2016/09/21,10:30,1.101,1.845,1.328,2.001,1.359,0.586,1.046,0.958,�k�k��,5.6,��
2016/09/21,10:40,1.103,1.846,1.330,2.003,1.358,0.586,1.045,0.960,�k�k��,4.9,��
2016/09/21,10:50,1.104,1.848,1.331,2.012,1.361,0.585,1.045,0.958,�k,5.3,��
2016/09/21,11:00,1.107,1.850,1.330,2.010,1.360,0.587,1.040,0.960,�k,4.4,��
2016/09/21,11:10,1.107,1.848,1.331,2.010,1.361,0.587,1.037,0.958,�k,4.6,��
2016/09/21,11:20,1.107,1.853,1.331,2.009,1.363,0.585,1.039,0.963,�k,4.9,��
2016/09/21,11:30,1.106,1.849,1.334,2.012,1.364,0.587,1.040,0.962,�k,6.0,��
2016/09/21,11:40,1.108,1.849,1.333,2.013,1.365,0.588,1.037,0.963,�k,5.0,��
2016/09/21,11:50,1.105,1.852,1.332,2.016,1.364,0.585,1.041,0.962,�k,4.9,��
2016/09/21,12:00,1.106,1.849,1.333,2.014,1.368,0.586,1.042,0.965,�k,5.2,��
2016/09/21,12:10,1.107,1.851,1.333,2.015,1.366,0.587,1.042,0.963,�k,4.4,��
2016/09/21,12:20,1.109,1.853,1.335,2.013,1.370,0.587,1.045,0.963,�k�k��,4.4,��
2016/09/21,12:30,1.107,1.850,1.336,2.016,1.370,0.587,1.049,0.964,�k,4.5,��
2016/09/21,12:40,1.110,1.852,1.336,2.016,1.371,0.588,1.049,0.965,�k,4.7,��
2016/09/21,12:50,1.110,1.855,1.339,2.014,1.369,0.588,1.051,0.963,�k,4.3,��
2016/09/21,13:00,1.108,1.852,1.337,2.018,1.369,0.588,1.052,0.963,�k,3.9,��
2016/09/21,13:10,1.110,1.855,1.340,2.018,1.370,0.589,1.054,0.965,�k�k��,3.6,��
2016/09/21,13:20,1.107,1.851,1.340,2.017,1.372,0.588,1.053,0.962,�k�k��,4.1,��
2016/09/21,13:30,1.108,1.856,1.337,2.016,1.370,0.589,1.053,0.965,�k�k��,4.4,��
2016/09/21,13:40,1.110,1.858,1.336,2.020,1.374,0.589,1.052,0.965,�k�k��,4.4,��
2016/09/21,13:50,1.110,1.855,1.338,2.019,1.372,0.589,1.054,0.966,�k,5.2,��
2016/09/21,14:00,1.111,1.859,1.339,2.019,1.375,0.590,1.054,0.967,�k,5.2,��
2016/09/21,14:10,1.113,1.858,1.341,2.019,1.374,0.586,1.053,0.966,�k�k��,3.5,��
2016/09/21,14:20,1.115,1.856,1.340,2.021,1.375,0.589,1.054,0.965,�k�k��,3.9,��
2016/09/21,14:30,1.110,1.861,1.342,2.021,1.375,0.589,1.054,0.965,�k,4.4,��
2016/09/21,14:40,1.113,1.861,1.342,2.022,1.375,0.590,1.054,0.965,�k,4.4,��
2016/09/21,14:50,1.113,1.862,1.342,2.023,1.377,0.588,1.053,0.966,�k,3.6,��
2016/09/21,15:00,1.115,1.862,1.344,2.023,1.377,0.588,1.055,0.968,�k,3.5,��
2016/09/21,15:10,1.115,1.860,1.343,2.024,1.378,0.587,1.052,0.966,�k�k��,4.2,��
2016/09/21,15:20,1.113,1.862,1.342,2.025,1.382,0.590,1.054,0.967,�k�k��,4.5,��
2016/09/21,15:30,1.114,1.861,1.341,2.025,1.378,0.588,1.054,0.965,�k�k��,3.3,��
2016/09/21,15:40,1.114,1.859,1.342,2.022,1.381,0.589,1.054,0.967,�k,2.6,��
2016/09/21,15:50,1.111,1.858,1.342,2.028,1.377,0.588,1.055,0.967,�k�k��,3.0,��
2016/09/21,16:00,1.112,1.862,1.343,2.024,1.381,0.590,1.056,0.967,�k�k��,3.5,��
2016/09/21,16:10,1.113,1.861,1.343,2.026,1.382,0.588,1.056,0.966,�k�k��,3.8,��
2016/09/21,16:20,1.112,1.858,1.343,2.030,1.382,0.590,1.054,0.967,�k�k��,3.3,��
2016/09/21,16:30,1.114,1.864,1.342,2.031,1.381,0.591,1.055,0.966,�k�k��,4.1,��
2016/09/21,16:40,1.113,1.861,1.345,2.027,1.380,0.591,1.057,0.967,�k�k��,4.2,��
2016/09/21,16:50,1.113,1.863,1.343,2.028,1.382,0.590,1.054,0.966,�k�k��,3.9,��
2016/09/21,17:00,1.114,1.866,1.342,2.033,1.382,0.591,1.055,0.969,�k�k��,4.5,��
2016/09/21,17:10,1.113,1.865,1.346,2.030,1.382,0.589,1.054,0.967,�k�k��,4.7,��
2016/09/21,17:20,1.115,1.865,1.346,2.029,1.382,0.590,1.055,0.969,�k�k��,4.5,��
2016/09/21,17:30,1.114,1.867,1.347,2.030,1.383,0.591,1.055,0.966,�k��,4.5,��
2016/09/21,17:40,1.115,1.865,1.346,2.032,1.383,0.590,1.055,0.966,�k��,4.9,��
2016/09/21,17:50,1.117,1.868,1.346,2.030,1.384,0.590,1.057,0.969,�k��,4.4,��
2016/09/21,18:00,1.115,1.869,1.348,2.031,1.385,0.591,1.055,0.970,�k��,4.9,��
2016/09/21,18:10,1.117,1.867,1.346,2.029,1.387,0.593,1.055,0.971,�k��,5.5,��
2016/09/21,18:20,1.116,1.868,1.347,2.031,1.387,0.592,1.055,0.969,�k��,5.8,��
2016/09/21,18:30,1.116,1.867,1.348,2.028,1.385,0.591,1.055,0.970,�k��,5.8,��
2016/09/21,18:40,1.117,1.871,1.349,2.030,1.388,0.592,1.056,0.972,�k�k��,5.3,��
2016/09/21,18:50,1.117,1.869,1.347,2.031,1.387,0.591,1.057,0.970,�k��,6.3,��
2016/09/21,19:00,1.118,1.866,1.347,2.031,1.385,0.591,1.054,0.971,�k��,5.8,��
2016/09/21,19:10,1.117,1.866,1.350,2.030,1.386,0.591,1.055,0.970,�k��,5.8,��
2016/09/21,19:20,1.118,1.868,1.347,2.031,1.390,0.592,1.056,0.970,�k�k��,6.1,��
2016/09/21,19:30,1.117,1.868,1.351,2.031,1.388,0.592,1.056,0.971,�k�k��,6.3,��
2016/09/21,19:40,1.117,1.870,1.351,2.034,1.389,0.590,1.057,0.972,�k��,6.6,��
2016/09/21,19:50,1.119,1.867,1.351,2.030,1.388,0.592,1.056,0.972,�k�k��,6.3,��
2016/09/21,20:00,1.118,1.871,1.347,2.033,1.388,0.591,1.058,0.970,�k��,5.5,��
2016/09/21,20:10,1.118,1.868,1.348,2.033,1.389,0.591,1.056,0.972,�k��,6.0,��
2016/09/21,20:20,1.120,1.869,1.351,2.030,1.389,0.592,1.055,0.971,�k��,5.8,��
2016/09/21,20:30,1.118,1.867,1.351,2.031,1.390,0.592,1.056,0.972,�k��,5.5,��
2016/09/21,20:40,1.118,1.871,1.349,2.033,1.391,0.592,1.057,0.970,�k��,5.2,��
2016/09/21,20:50,1.119,1.869,1.347,2.033,1.388,0.591,1.056,0.971,�k��,4.6,��
2016/09/21,21:00,1.119,1.868,1.351,2.035,1.389,0.591,1.057,0.972,�k��,5.5,��
2016/09/21,21:10,1.119,1.870,1.352,2.031,1.388,0.590,1.055,0.973,�k��,4.9,��
2016/09/21,21:20,1.117,1.869,1.349,2.034,1.387,0.592,1.056,0.972,�k��,5.2,��
2016/09/21,21:30,1.119,1.870,1.348,2.034,1.391,0.592,1.056,0.971,�k��,4.9,��
2016/09/21,21:40,1.119,1.867,1.348,2.033,1.389,0.591,1.057,0.971,�k��,4.1,�L
2016/09/21,21:50,1.116,1.865,1.347,2.032,1.390,0.592,1.058,0.970,�k��,3.8,�L
2016/09/21,22:00,1.117,1.860,1.345,2.030,1.387,0.592,1.057,0.971,�k��,4.4,�L
2016/09/21,22:10,1.113,1.857,1.340,2.026,1.386,0.592,1.056,0.972,�k��,3.8,�L
2016/09/21,22:20,1.110,1.852,1.337,2.025,1.382,0.594,1.055,0.971,�k�k��,4.4,�L
2016/09/21,22:30,1.107,1.848,1.335,2.026,1.379,0.591,1.055,0.971,�k��,4.6,��
2016/09/21,22:40,1.110,1.850,1.337,2.025,1.381,0.593,1.051,0.969,�k��,4.7,��
2016/09/21,22:50,1.110,1.851,1.337,2.025,1.382,0.591,1.054,0.968,�k��,4.6,��
2016/09/21,23:00,1.110,1.850,1.335,2.025,1.384,0.589,1.053,0.970,�k��,3.9,��
2016/09/21,23:10,1.109,1.850,1.339,2.028,1.382,0.590,1.051,0.969,�k��,4.2,�L
2016/09/21,23:20,1.108,1.846,1.337,2.025,1.378,0.590,1.051,0.966,�k�k��,4.1,�L
2016/09/21,23:30,1.110,1.843,1.336,2.021,1.377,0.591,1.048,0.966,�k�k��,3.8,��
2016/09/21,23:40,1.109,1.845,1.338,2.021,1.378,0.589,1.049,0.964,�k��,4.4,��
2016/09/21,23:50,1.107,1.847,1.334,2.018,1.377,0.591,1.050,0.966,�k��,4.9,��
